Time,TemperatureF,DewpointF,PressureIn,WindDirection,WindDirectionDegrees,WindSpeedMPH,WindSpeedGustMPH,Humidity,HourlyPrecipIn,Conditions,Clouds,dailyrainin,SoftwareType,DateUTC
2013-09-22 00:01:00,79.2,68.5,29.74,SSW,202,0.0,0.0,70,0.00,,---,0.00,VWS V13.01,2013-09-22 04:01:00,
2013-09-22 00:02:00,79.2,68.5,29.74,SSW,202,0.0,0.0,70,0.00,,---,0.00,VWS V13.01,2013-09-22 04:02:00,
2013-09-22 00:07:00,79.0,68.8,29.74,SSW,202,0.0,0.0,71,0.00,,---,0.00,VWS V13.01,2013-09-22 04:07:00,
2013-09-22 00:12:00,79.0,68.8,29.74,SSW,202,0.0,0.0,71,0.00,,---,0.00,VWS V13.01,2013-09-22 04:12:00,
2013-09-22 00:17:00,79.2,69.4,29.74,SSW,202,0.0,0.0,72,0.00,,---,0.00,VWS V13.01,2013-09-22 04:17:00,
2013-09-22 00:22:00,79.2,69.4,29.73,SSW,202,0.0,0.0,72,0.00,,---,0.00,VWS V13.01,2013-09-22 04:22:00,
2013-09-22 00:27:00,79.2,69.4,29.73,SSW,202,0.0,0.0,72,0.00,,---,0.00,VWS V13.01,2013-09-22 04:27:00,
2013-09-22 00:32:00,79.5,70.1,29.73,SSW,202,0.0,0.0,73,0.00,,---,0.00,VWS V13.01,2013-09-22 04:32:00,
2013-09-22 00:37:00,79.2,69.8,29.73,SSW,202,0.0,0.0,73,0.00,,---,0.00,VWS V13.01,2013-09-22 04:37:00,
2013-09-22 00:42:00,79.2,69.8,29.73,SSW,202,0.0,0.0,73,0.00,,---,0.00,VWS V13.01,2013-09-22 04:42:00,
2013-09-22 00:47:00,79.2,70.2,29.73,SSW,202,0.0,0.0,74,0.00,,---,0.00,VWS V13.01,2013-09-22 04:47:00,
2013-09-22 00:52:00,79.2,70.2,29.73,SSW,202,0.0,0.0,74,0.00,,---,0.00,VWS V13.01,2013-09-22 04:52:00,
2013-09-22 00:57:00,79.0,70.4,29.73,SSW,202,0.0,0.0,75,0.00,,---,0.00,VWS V13.01,2013-09-22 04:57:00,
2013-09-22 01:02:00,79.2,70.6,29.73,SSW,202,0.0,0.0,75,0.00,,---,0.00,VWS V13.01,2013-09-22 05:02:00,
2013-09-22 01:07:00,79.2,70.6,29.73,SSW,202,0.0,0.0,75,0.00,,---,0.00,VWS V13.01,2013-09-22 05:07:00,
2013-09-22 01:12:00,79.2,70.6,29.73,SSW,202,0.0,0.0,75,0.00,,---,0.00,VWS V13.01,2013-09-22 05:12:00,
2013-09-22 01:17:00,79.2,70.6,29.73,SSW,202,0.0,0.0,75,0.00,,---,0.00,VWS V13.01,2013-09-22 05:17:00,
2013-09-22 01:22:00,79.2,70.9,29.73,ENE,68,0.0,0.0,76,0.00,,---,0.00,VWS V13.01,2013-09-22 05:22:00,
2013-09-22 01:27:00,79.2,70.9,29.73,ENE,68,0.0,0.0,76,0.00,,---,0.00,VWS V13.01,2013-09-22 05:27:00,
2013-09-22 01:32:00,79.2,70.9,29.73,ENE,68,0.0,0.0,76,0.00,,---,0.00,VWS V13.01,2013-09-22 05:32:00,
2013-09-22 01:37:00,79.2,70.9,29.73,ENE,68,0.0,0.0,76,0.00,,---,0.00,VWS V13.01,2013-09-22 05:37:00,
2013-09-22 01:42:00,79.2,70.9,29.73,ENE,68,0.0,0.0,76,0.00,,---,0.00,VWS V13.01,2013-09-22 05:42:00,
2013-09-22 01:47:00,79.2,70.9,29.72,ENE,68,0.0,0.0,76,0.00,,---,0.00,VWS V13.01,2013-09-22 05:47:00,
2013-09-22 01:52:00,79.2,70.9,29.72,ENE,68,0.0,0.0,76,0.00,,---,0.00,VWS V13.01,2013-09-22 05:52:00,
2013-09-22 01:57:00,79.0,70.8,29.73,ENE,68,0.0,0.0,76,0.00,,---,0.00,VWS V13.01,2013-09-22 05:57:00,
2013-09-22 02:02:00,79.0,70.8,29.73,ENE,68,0.0,0.0,76,0.00,,---,0.00,VWS V13.01,2013-09-22 06:02:00,
2013-09-22 02:07:00,79.0,70.8,29.72,ENE,68,0.0,0.0,76,0.00,,---,0.00,VWS V13.01,2013-09-22 06:07:00,
2013-09-22 02:12:00,79.0,70.8,29.72,ENE,68,0.0,0.0,76,0.00,,---,0.00,VWS V13.01,2013-09-22 06:12:00,
2013-09-22 02:17:00,79.0,70.8,29.72,South,180,0.0,0.0,76,0.00,,---,0.00,VWS V13.01,2013-09-22 06:17:00,
2013-09-22 02:22:00,78.8,70.6,29.72,South,180,0.0,0.0,76,0.00,,---,0.00,VWS V13.01,2013-09-22 06:22:00,
2013-09-22 02:27:00,79.0,70.8,29.71,South,180,0.0,0.0,76,0.00,,---,0.00,VWS V13.01,2013-09-22 06:27:00,
2013-09-22 02:32:00,78.6,70.4,29.71,SE,135,0.0,0.0,76,0.00,,---,0.00,VWS V13.01,2013-09-22 06:32:00,
2013-09-22 02:37:00,78.6,70.4,29.70,SSE,158,0.0,0.0,76,0.00,,---,0.00,VWS V13.01,2013-09-22 06:37:00,
2013-09-22 02:42:00,79.0,70.8,29.71,SSE,158,0.0,0.0,76,0.00,,---,0.00,VWS V13.01,2013-09-22 06:42:00,
2013-09-22 02:47:00,78.6,70.4,29.70,SSE,158,0.0,0.0,76,0.00,,---,0.00,VWS V13.01,2013-09-22 06:47:00,
2013-09-22 02:52:00,78.6,70.4,29.70,SSE,158,0.0,0.0,76,0.00,,---,0.00,VWS V13.01,2013-09-22 06:52:00,
2013-09-22 02:57:00,78.6,70.4,29.70,SSE,158,0.0,0.0,76,0.00,,---,0.00,VWS V13.01,2013-09-22 06:57:00,
2013-09-22 03:02:00,79.0,70.8,29.70,SSE,158,0.0,0.0,76,0.00,,---,0.00,VWS V13.01,2013-09-22 07:02:00,
2013-09-22 03:07:00,78.8,70.6,29.70,SSE,158,0.0,0.0,76,0.00,,---,0.00,VWS V13.01,2013-09-22 07:07:00,
2013-09-22 03:12:00,78.8,70.6,29.70,SSE,158,0.0,0.0,76,0.00,,---,0.00,VWS V13.01,2013-09-22 07:12:00,
2013-09-22 03:17:00,78.6,70.4,29.70,SSE,158,0.0,0.0,76,0.00,,---,0.00,VWS V13.01,2013-09-22 07:17:00,
2013-09-22 03:22:00,78.8,71.0,29.70,SSE,158,0.0,0.0,77,0.00,,---,0.00,VWS V13.01,2013-09-22 07:22:00,
2013-09-22 03:27:00,79.0,71.2,29.70,SSE,158,0.0,0.0,77,0.00,,---,0.00,VWS V13.01,2013-09-22 07:27:00,
2013-09-22 03:32:00,78.8,71.0,29.70,SSE,158,0.0,0.0,77,0.00,,---,0.00,VWS V13.01,2013-09-22 07:32:00,
2013-09-22 03:37:00,78.6,70.8,29.70,SSE,158,0.0,0.0,77,0.00,,---,0.00,VWS V13.01,2013-09-22 07:37:00,
2013-09-22 03:42:00,78.6,70.8,29.70,SSE,158,0.0,0.0,77,0.00,,---,0.00,VWS V13.01,2013-09-22 07:42:00,
2013-09-22 03:47:00,78.6,70.8,29.70,SSE,158,0.0,0.0,77,0.00,,---,0.00,VWS V13.01,2013-09-22 07:47:00,
2013-09-22 03:52:00,78.8,71.0,29.70,SSE,158,0.0,0.0,77,0.00,,---,0.00,VWS V13.01,2013-09-22 07:52:00,
2013-09-22 03:57:00,78.6,70.8,29.70,SSE,158,0.0,0.0,77,0.00,,---,0.00,VWS V13.01,2013-09-22 07:57:00,
2013-09-22 04:02:00,78.6,70.8,29.70,SSE,158,0.0,0.0,77,0.00,,---,0.00,VWS V13.01,2013-09-22 08:02:00,
2013-09-22 04:07:00,78.4,70.6,29.70,SSE,158,0.0,0.0,77,0.00,,---,0.00,VWS V13.01,2013-09-22 08:07:00,
2013-09-22 04:12:00,78.4,70.6,29.70,SSE,158,0.0,0.0,77,0.00,,---,0.00,VWS V13.01,2013-09-22 08:12:00,
2013-09-22 04:17:00,78.4,70.6,29.70,SSE,158,0.0,0.0,77,0.00,,---,0.00,VWS V13.01,2013-09-22 08:17:00,
2013-09-22 04:22:00,78.4,70.6,29.70,SSE,158,0.0,0.0,77,0.00,,---,0.00,VWS V13.01,2013-09-22 08:22:00,
2013-09-22 04:27:00,78.3,70.5,29.70,SSE,158,0.0,0.0,77,0.00,,---,0.00,VWS V13.01,2013-09-22 08:27:00,
2013-09-22 04:32:00,78.3,70.5,29.70,SSE,158,0.0,0.0,77,0.00,,---,0.00,VWS V13.01,2013-09-22 08:32:00,
2013-09-22 04:37:00,78.3,70.5,29.70,SSE,158,0.0,0.0,77,0.00,,---,0.00,VWS V13.01,2013-09-22 08:37:00,
2013-09-22 04:42:00,78.3,70.5,29.70,SSE,158,0.0,0.0,77,0.00,,---,0.00,VWS V13.01,2013-09-22 08:42:00,
2013-09-22 04:47:00,78.3,70.5,29.70,SSE,158,0.0,0.0,77,0.00,,---,0.00,VWS V13.01,2013-09-22 08:47:00,
2013-09-22 04:52:00,78.3,70.5,29.70,SSE,158,0.0,0.0,77,0.00,,---,0.00,VWS V13.01,2013-09-22 08:52:00,
2013-09-22 04:57:00,78.3,70.8,29.70,SSE,158,0.0,0.0,78,0.00,,---,0.00,VWS V13.01,2013-09-22 08:57:00,
2013-09-22 05:02:00,78.1,70.7,29.70,SSE,158,0.0,0.0,78,0.00,,---,0.00,VWS V13.01,2013-09-22 09:02:00,
2013-09-22 05:07:00,77.9,70.5,29.70,SSE,158,0.0,0.0,78,0.00,,---,0.00,VWS V13.01,2013-09-22 09:07:00,
2013-09-22 05:12:00,77.9,70.5,29.70,SSE,158,0.0,0.0,78,0.00,,---,0.00,VWS V13.01,2013-09-22 09:12:00,
2013-09-22 05:17:00,77.9,70.5,29.70,SSE,158,0.0,0.0,78,0.00,,---,0.00,VWS V13.01,2013-09-22 09:17:00,
2013-09-22 05:22:00,77.7,70.7,29.70,SSE,158,0.0,0.0,79,0.00,,---,0.00,VWS V13.01,2013-09-22 09:22:00,
2013-09-22 05:27:00,77.5,70.5,29.70,SSE,158,0.0,0.0,79,0.00,,---,0.00,VWS V13.01,2013-09-22 09:27:00,
2013-09-22 05:32:00,77.7,70.7,29.70,SSE,158,0.0,0.0,79,0.00,,---,0.00,VWS V13.01,2013-09-22 09:32:00,
2013-09-22 05:37:00,77.7,70.7,29.70,SSE,158,0.0,0.0,79,0.00,,---,0.00,VWS V13.01,2013-09-22 09:37:00,
2013-09-22 05:42:00,77.4,70.3,29.71,SSE,158,0.0,0.0,79,0.00,,---,0.00,VWS V13.01,2013-09-22 09:42:00,
2013-09-22 05:47:00,77.4,70.3,29.71,SSE,158,0.0,0.0,79,0.00,,---,0.00,VWS V13.01,2013-09-22 09:47:00,
2013-09-22 05:52:00,77.4,70.3,29.70,SSE,158,0.0,0.0,79,0.00,,---,0.00,VWS V13.01,2013-09-22 09:52:00,
2013-09-22 05:57:00,77.4,70.3,29.70,SSE,158,0.0,0.0,79,0.00,,---,0.00,VWS V13.01,2013-09-22 09:57:00,
2013-09-22 06:02:00,77.4,70.3,29.70,SSE,158,0.0,0.0,79,0.00,,---,0.00,VWS V13.01,2013-09-22 10:02:00,
2013-09-22 06:07:00,77.2,70.2,29.70,SSE,158,0.0,0.0,79,0.00,,---,0.00,VWS V13.01,2013-09-22 10:07:00,
2013-09-22 06:12:00,77.2,70.2,29.71,SSE,158,0.0,0.0,79,0.00,,---,0.00,VWS V13.01,2013-09-22 10:12:00,
2013-09-22 06:17:00,77.2,70.2,29.71,SSE,158,0.0,0.0,79,0.00,,---,0.00,VWS V13.01,2013-09-22 10:17:00,
2013-09-22 06:22:00,77.2,70.5,29.71,SSE,158,0.0,0.0,80,0.00,,---,0.00,VWS V13.01,2013-09-22 10:22:00,
2013-09-22 06:27:00,77.0,70.4,29.71,SSE,158,0.0,0.0,80,0.00,,---,0.00,VWS V13.01,2013-09-22 10:27:00,
2013-09-22 06:32:00,77.2,70.5,29.71,SSE,158,0.0,0.0,80,0.00,,---,0.00,VWS V13.01,2013-09-22 10:32:00,
2013-09-22 06:37:00,76.8,70.2,29.71,SSE,158,0.0,0.0,80,0.00,,---,0.00,VWS V13.01,2013-09-22 10:37:00,
2013-09-22 06:42:00,76.8,70.2,29.72,SSE,158,0.0,0.0,80,0.00,,---,0.00,VWS V13.01,2013-09-22 10:42:00,
2013-09-22 06:47:00,76.8,70.2,29.71,SSE,158,0.0,0.0,80,0.00,,---,0.00,VWS V13.01,2013-09-22 10:47:00,
2013-09-22 06:52:00,76.6,70.0,29.72,SSE,158,0.0,0.0,80,0.00,,---,0.00,VWS V13.01,2013-09-22 10:52:00,
2013-09-22 06:57:00,76.6,70.0,29.72,SSE,158,0.0,0.0,80,0.00,,---,0.00,VWS V13.01,2013-09-22 10:57:00,
2013-09-22 07:02:00,76.6,70.4,29.72,SSE,158,0.0,0.0,81,0.00,,---,0.00,VWS V13.01,2013-09-22 11:02:00,
2013-09-22 07:07:00,76.6,70.4,29.72,SSE,158,0.0,0.0,81,0.00,,---,0.00,VWS V13.01,2013-09-22 11:07:00,
2013-09-22 07:12:00,76.6,70.4,29.72,SSE,158,0.0,0.0,81,0.00,,---,0.00,VWS V13.01,2013-09-22 11:12:00,
2013-09-22 07:17:00,76.6,70.4,29.73,SSE,158,0.0,0.0,81,0.00,,---,0.00,VWS V13.01,2013-09-22 11:17:00,
2013-09-22 07:22:00,76.6,70.4,29.72,SSE,158,0.0,0.0,81,0.00,,---,0.00,VWS V13.01,2013-09-22 11:22:00,
2013-09-22 07:27:00,76.6,70.4,29.73,SSE,158,0.0,0.0,81,0.00,,---,0.00,VWS V13.01,2013-09-22 11:27:00,
2013-09-22 07:32:00,76.8,70.6,29.73,ESE,112,0.0,0.0,81,0.00,,---,0.00,VWS V13.01,2013-09-22 11:32:00,
2013-09-22 07:37:00,77.0,70.7,29.73,South,180,0.0,0.0,81,0.00,,---,0.00,VWS V13.01,2013-09-22 11:37:00,
2013-09-22 07:43:00,77.4,71.4,29.73,South,180,0.0,0.0,82,0.00,,---,0.00,VWS V13.01,2013-09-22 11:43:00,
2013-09-22 07:48:00,77.5,71.6,29.72,South,180,0.0,0.0,82,0.00,,---,0.00,VWS V13.01,2013-09-22 11:48:00,
2013-09-22 07:53:00,77.7,71.8,29.72,South,180,0.0,0.0,82,0.00,,---,0.00,VWS V13.01,2013-09-22 11:53:00,
2013-09-22 07:58:00,78.1,71.8,29.73,South,180,0.0,0.0,81,0.00,,---,0.00,VWS V13.01,2013-09-22 11:58:00,
2013-09-22 08:03:00,78.3,72.0,29.73,South,180,0.0,0.0,81,0.00,,---,0.00,VWS V13.01,2013-09-22 12:03:00,
2013-09-22 08:08:00,78.6,72.3,29.73,South,180,0.0,0.0,81,0.00,,---,0.00,VWS V13.01,2013-09-22 12:08:00,
2013-09-22 08:13:00,78.8,72.5,29.73,South,180,0.0,0.0,81,0.00,,---,0.00,VWS V13.01,2013-09-22 12:13:00,
2013-09-22 08:18:00,79.2,72.8,29.73,South,180,0.0,0.0,81,0.00,,---,0.00,VWS V13.01,2013-09-22 12:18:00,
2013-09-22 08:23:00,79.5,73.2,29.73,SSE,158,0.0,0.0,81,0.00,,---,0.00,VWS V13.01,2013-09-22 12:23:00,
2013-09-22 08:28:00,79.7,73.4,29.73,NNE,22,0.0,0.0,81,0.00,,---,0.00,VWS V13.01,2013-09-22 12:28:00,
2013-09-22 08:33:00,80.1,73.3,29.73,NW,315,0.0,0.0,80,0.00,,---,0.00,VWS V13.01,2013-09-22 12:33:00,
2013-09-22 08:38:00,80.4,73.7,29.73,NW,315,0.0,0.0,80,0.00,,---,0.00,VWS V13.01,2013-09-22 12:38:00,
2013-09-22 08:43:00,81.0,74.2,29.73,NW,315,0.0,0.0,80,0.00,,---,0.00,VWS V13.01,2013-09-22 12:43:00,
2013-09-22 08:48:00,81.5,74.7,29.73,ENE,68,0.0,0.0,80,0.00,,---,0.00,VWS V13.01,2013-09-22 12:48:00,
2013-09-22 08:53:00,82.0,74.9,29.74,NNW,338,0.0,0.0,79,0.00,,---,0.00,VWS V13.01,2013-09-22 12:53:00,
2013-09-22 08:58:00,82.6,74.6,29.74,NNW,338,0.0,0.0,77,0.00,,---,0.00,VWS V13.01,2013-09-22 12:58:00,
2013-09-22 09:03:00,83.1,74.8,29.74,SW,225,0.0,0.0,76,0.00,,---,0.00,VWS V13.01,2013-09-22 13:03:00,
2013-09-22 09:08:00,83.3,74.2,29.74,SW,225,0.0,0.0,74,0.00,,---,0.00,VWS V13.01,2013-09-22 13:08:00,
2013-09-22 09:13:00,83.5,73.9,29.74,SW,225,0.0,0.0,73,0.00,,---,0.00,VWS V13.01,2013-09-22 13:13:00,
2013-09-22 09:18:00,83.3,72.9,29.74,SW,225,0.0,0.0,71,0.00,,---,0.00,VWS V13.01,2013-09-22 13:18:00,
2013-09-22 09:23:00,83.7,73.3,29.74,SW,225,0.0,0.0,71,0.00,,---,0.00,VWS V13.01,2013-09-22 13:23:00,
2013-09-22 09:28:00,84.4,73.9,29.74,SW,225,0.0,0.0,71,0.00,,---,0.00,VWS V13.01,2013-09-22 13:28:00,
2013-09-22 09:33:00,84.7,73.9,29.74,SW,225,0.0,0.0,70,0.00,,---,0.00,VWS V13.01,2013-09-22 13:33:00,
2013-09-22 09:38:00,85.3,73.5,29.74,SW,225,0.0,0.0,68,0.00,,---,0.00,VWS V13.01,2013-09-22 13:38:00,
2013-09-22 09:43:00,85.8,73.6,29.74,SW,225,0.0,0.0,67,0.00,,---,0.00,VWS V13.01,2013-09-22 13:43:00,
2013-09-22 09:48:00,86.2,73.5,29.74,SSE,158,0.0,0.0,66,0.00,,---,0.00,VWS V13.01,2013-09-22 13:48:00,
2013-09-22 09:53:00,86.5,72.9,29.74,SE,135,0.0,0.0,64,0.00,,---,0.00,VWS V13.01,2013-09-22 13:53:00,
2013-09-22 09:58:00,86.7,73.1,29.75,SSE,158,0.0,0.0,64,0.00,,---,0.00,VWS V13.01,2013-09-22 13:58:00,
2013-09-22 10:03:00,86.9,72.3,29.75,SSW,202,0.0,0.0,62,0.00,,---,0.00,VWS V13.01,2013-09-22 14:03:00,
2013-09-22 10:08:00,87.3,72.2,29.75,SSW,202,0.0,0.0,61,0.00,,---,0.00,VWS V13.01,2013-09-22 14:08:00,
2013-09-22 10:13:00,87.6,72.5,29.75,SSE,158,0.0,0.0,61,0.00,,---,0.00,VWS V13.01,2013-09-22 14:13:00,
2013-09-22 10:18:00,88.2,72.5,29.75,ESE,112,0.0,0.0,60,0.00,,---,0.00,VWS V13.01,2013-09-22 14:18:00,
2013-09-22 10:23:00,88.2,71.5,29.75,SSW,202,0.0,0.0,58,0.00,,---,0.00,VWS V13.01,2013-09-22 14:23:00,
2013-09-22 10:28:00,88.2,71.0,29.75,SSW,202,0.0,0.0,57,0.00,,---,0.00,VWS V13.01,2013-09-22 14:28:00,
2013-09-22 10:33:00,88.5,71.9,29.75,SE,135,0.0,0.0,58,0.00,,---,0.00,VWS V13.01,2013-09-22 14:33:00,
2013-09-22 10:38:00,89.1,71.3,29.75,South,180,0.0,0.0,56,0.00,,---,0.00,VWS V13.01,2013-09-22 14:38:00,
2013-09-22 10:43:00,89.2,71.0,29.75,SSW,202,0.0,0.0,55,0.00,,---,0.00,VWS V13.01,2013-09-22 14:43:00,
2013-09-22 10:48:00,89.6,71.3,29.75,SSW,202,0.0,0.0,55,0.00,,---,0.00,VWS V13.01,2013-09-22 14:48:00,
2013-09-22 10:53:00,90.3,71.4,29.75,SSW,202,0.0,0.0,54,0.00,,---,0.00,VWS V13.01,2013-09-22 14:53:00,
2013-09-22 10:58:00,90.9,71.9,29.75,SSW,202,0.0,0.0,54,0.00,,---,0.00,VWS V13.01,2013-09-22 14:58:00,
2013-09-22 11:03:00,91.2,71.7,29.75,SSW,202,0.0,0.0,53,0.00,,---,0.00,VWS V13.01,2013-09-22 15:03:00,
2013-09-22 11:08:00,91.4,71.3,29.75,SSE,158,0.0,0.0,52,0.00,,---,0.00,VWS V13.01,2013-09-22 15:08:00,
2013-09-22 11:13:00,91.0,70.4,29.75,SSW,202,0.0,0.0,51,0.00,,---,0.00,VWS V13.01,2013-09-22 15:13:00,
2013-09-22 11:18:00,91.0,70.4,29.75,SSW,202,0.0,0.0,51,0.00,,---,0.00,VWS V13.01,2013-09-22 15:18:00,
2013-09-22 11:23:00,91.0,69.8,29.75,SSW,202,0.0,0.0,50,0.00,,---,0.00,VWS V13.01,2013-09-22 15:23:00,
2013-09-22 11:28:00,90.9,69.7,29.74,SSW,202,0.0,0.0,50,0.00,,---,0.00,VWS V13.01,2013-09-22 15:28:00,
2013-09-22 11:33:00,90.3,69.2,29.74,SSW,202,0.0,0.0,50,0.00,,---,0.00,VWS V13.01,2013-09-22 15:33:00,
2013-09-22 11:38:00,90.5,69.3,29.75,SSW,202,0.0,0.0,50,0.00,,---,0.00,VWS V13.01,2013-09-22 15:38:00,
2013-09-22 11:43:00,91.0,69.8,29.75,SSW,202,0.0,0.0,50,0.00,,---,0.00,VWS V13.01,2013-09-22 15:43:00,
2013-09-22 11:48:00,91.6,69.7,29.75,South,180,0.0,0.0,49,0.00,,---,0.00,VWS V13.01,2013-09-22 15:48:00,
2013-09-22 11:53:00,91.6,68.5,29.74,SSW,202,0.0,0.0,47,0.00,,---,0.00,VWS V13.01,2013-09-22 15:53:00,
2013-09-22 11:58:00,91.8,68.7,29.74,South,180,0.0,0.0,47,0.00,,---,0.00,VWS V13.01,2013-09-22 15:58:00,
2013-09-22 12:03:00,91.8,68.7,29.74,SSW,202,0.0,0.0,47,0.00,,---,0.00,VWS V13.01,2013-09-22 16:03:00,
2013-09-22 12:08:00,91.8,68.7,29.74,SSE,158,0.0,0.0,47,0.00,,---,0.00,VWS V13.01,2013-09-22 16:08:00,
2013-09-22 12:13:00,92.1,69.6,29.74,SSE,158,0.0,0.0,48,0.00,,---,0.00,VWS V13.01,2013-09-22 16:13:00,
2013-09-22 12:18:00,91.8,68.7,29.73,South,180,0.0,0.0,47,0.00,,---,0.00,VWS V13.01,2013-09-22 16:18:00,
2013-09-22 12:23:00,91.6,69.1,29.73,SSW,202,0.0,0.0,48,0.00,,---,0.00,VWS V13.01,2013-09-22 16:23:00,
2013-09-22 12:28:00,91.0,68.6,29.73,SSW,202,0.0,0.0,48,0.00,,---,0.00,VWS V13.01,2013-09-22 16:28:00,
2013-09-22 12:33:00,90.9,67.9,29.73,SSW,202,0.0,0.0,47,0.00,,---,0.00,VWS V13.01,2013-09-22 16:33:00,
2013-09-22 12:38:00,90.9,68.5,29.74,South,180,0.0,0.0,48,0.00,,---,0.00,VWS V13.01,2013-09-22 16:38:00,
2013-09-22 12:43:00,91.0,68.6,29.73,SSW,202,0.0,0.0,48,0.00,,---,0.00,VWS V13.01,2013-09-22 16:43:00,
2013-09-22 12:48:00,91.6,69.7,29.73,SSW,202,0.0,0.0,49,0.00,,---,0.00,VWS V13.01,2013-09-22 16:48:00,
2013-09-22 12:53:00,92.1,69.6,29.73,SSE,158,0.0,0.0,48,0.00,,---,0.00,VWS V13.01,2013-09-22 16:53:00,
2013-09-22 12:58:00,92.8,69.7,29.73,SSW,202,0.0,0.0,47,0.00,,---,0.00,VWS V13.01,2013-09-22 16:58:00,
2013-09-22 13:03:00,92.8,68.4,29.73,South,180,0.0,0.0,45,0.00,,---,0.00,VWS V13.01,2013-09-22 17:03:00,
2013-09-22 13:08:00,93.0,69.2,29.72,SSW,202,0.0,0.0,46,0.00,,---,0.00,VWS V13.01,2013-09-22 17:08:00,
2013-09-22 13:13:00,93.4,68.9,29.72,SSW,202,0.0,0.0,45,0.00,,---,0.00,VWS V13.01,2013-09-22 17:13:00,
2013-09-22 13:19:00,93.6,69.0,29.72,SSW,202,0.0,0.0,45,0.00,,---,0.00,VWS V13.01,2013-09-22 17:19:00,
2013-09-22 13:24:00,93.6,68.4,29.71,SSW,202,0.0,0.0,44,0.00,,---,0.00,VWS V13.01,2013-09-22 17:24:00,
2013-09-22 13:29:00,93.9,68.7,29.71,SSW,202,0.0,0.0,44,0.00,,---,0.00,VWS V13.01,2013-09-22 17:29:00,
2013-09-22 13:34:00,94.1,68.2,29.71,SSW,202,0.0,0.0,43,0.00,,---,0.00,VWS V13.01,2013-09-22 17:34:00,
2013-09-22 13:39:00,93.9,67.4,29.71,SSW,202,0.0,0.0,42,0.00,,---,0.00,VWS V13.01,2013-09-22 17:39:00,
2013-09-22 13:44:00,93.9,67.4,29.71,SSW,202,0.0,0.0,42,0.00,,---,0.00,VWS V13.01,2013-09-22 17:44:00,
2013-09-22 13:49:00,93.9,67.4,29.71,SSW,202,0.0,0.0,42,0.00,,---,0.00,VWS V13.01,2013-09-22 17:49:00,
2013-09-22 13:54:00,93.6,67.0,29.71,SSW,202,0.0,0.0,42,0.00,,---,0.00,VWS V13.01,2013-09-22 17:54:00,
2013-09-22 13:59:00,93.4,66.9,29.71,SSW,202,0.0,0.0,42,0.00,,---,0.00,VWS V13.01,2013-09-22 17:59:00,
2013-09-22 14:04:00,93.4,67.6,29.71,SSW,202,0.0,0.0,43,0.00,,---,0.00,VWS V13.01,2013-09-22 18:04:00,
2013-09-22 14:09:00,93.6,68.4,29.71,SSW,202,0.0,0.0,44,0.00,,---,0.00,VWS V13.01,2013-09-22 18:09:00,
2013-09-22 14:14:00,94.5,67.8,29.71,SSW,202,0.0,0.0,42,0.00,,---,0.00,VWS V13.01,2013-09-22 18:14:00,
2013-09-22 14:19:00,94.6,67.3,29.70,SSW,202,0.0,0.0,41,0.00,,---,0.00,VWS V13.01,2013-09-22 18:19:00,
2013-09-22 14:24:00,95.0,66.9,29.70,South,180,0.0,0.0,40,0.00,,---,0.00,VWS V13.01,2013-09-22 18:24:00,
2013-09-22 14:29:00,95.0,67.6,29.70,SSW,202,0.0,0.0,41,0.00,,---,0.00,VWS V13.01,2013-09-22 18:29:00,
2013-09-22 14:34:00,95.2,67.1,29.70,SSW,202,0.0,0.0,40,0.00,,---,0.00,VWS V13.01,2013-09-22 18:34:00,
2013-09-22 14:39:00,95.0,66.9,29.70,SW,225,0.0,0.0,40,0.00,,---,0.00,VWS V13.01,2013-09-22 18:39:00,
2013-09-22 14:45:00,94.5,65.7,29.70,SSW,202,0.0,0.0,39,0.00,,---,0.00,VWS V13.01,2013-09-22 18:45:00,
2013-09-22 14:50:00,93.9,65.2,29.70,SSW,202,0.0,0.0,39,0.00,,---,0.00,VWS V13.01,2013-09-22 18:50:00,
2013-09-22 14:55:00,93.9,65.9,29.70,SSW,202,0.0,0.0,40,0.00,,---,0.00,VWS V13.01,2013-09-22 18:55:00,
2013-09-22 15:00:00,94.1,66.1,29.70,SSW,202,0.0,0.0,40,0.00,,---,0.00,VWS V13.01,2013-09-22 19:00:00,
2013-09-22 15:05:00,94.6,66.6,29.70,SSW,202,0.0,0.0,40,0.00,,---,0.00,VWS V13.01,2013-09-22 19:05:00,
2013-09-22 15:10:00,95.4,67.2,29.70,SSW,202,0.0,0.0,40,0.00,,---,0.00,VWS V13.01,2013-09-22 19:10:00,
2013-09-22 15:15:00,95.4,65.8,29.70,SSW,202,0.0,0.0,38,0.00,,---,0.00,VWS V13.01,2013-09-22 19:15:00,
2013-09-22 15:20:00,95.7,66.8,29.70,SSW,202,0.0,0.0,39,0.00,,---,0.00,VWS V13.01,2013-09-22 19:20:00,
2013-09-22 15:25:00,95.9,67.0,29.69,SW,225,0.0,0.0,39,0.00,,---,0.00,VWS V13.01,2013-09-22 19:25:00,
2013-09-22 15:29:00,95.7,64.5,29.69,SSW,202,0.0,0.0,36,0.00,,---,0.00,VWS V13.01,2013-09-22 19:29:00,
2013-09-22 15:34:00,95.9,64.7,29.69,SSW,202,0.0,0.0,36,0.00,,---,0.00,VWS V13.01,2013-09-22 19:34:00,
2013-09-22 15:39:00,95.9,63.9,29.69,SSW,202,0.0,0.0,35,0.00,,---,0.00,VWS V13.01,2013-09-22 19:39:00,
2013-09-22 15:44:00,95.4,64.2,29.68,SSW,202,0.0,0.0,36,0.00,,---,0.00,VWS V13.01,2013-09-22 19:44:00,
2013-09-22 15:49:00,94.6,63.6,29.68,SSW,202,0.0,0.0,36,0.00,,---,0.00,VWS V13.01,2013-09-22 19:49:00,
2013-09-22 15:54:00,93.9,64.5,29.68,SSW,202,0.0,0.0,38,0.00,,---,0.00,VWS V13.01,2013-09-22 19:54:00,
2013-09-22 15:59:00,93.9,65.9,29.68,SSW,202,0.0,0.0,40,0.00,,---,0.00,VWS V13.01,2013-09-22 19:59:00,
2013-09-22 16:04:00,94.1,66.1,29.68,SSW,202,0.0,0.0,40,0.00,,---,0.00,VWS V13.01,2013-09-22 20:04:00,
2013-09-22 16:09:00,94.1,66.1,29.68,SSW,202,0.0,0.0,40,0.00,,---,0.00,VWS V13.01,2013-09-22 20:09:00,
2013-09-22 16:15:00,93.9,65.9,29.68,SSW,202,0.0,0.0,40,0.00,,---,0.00,VWS V13.01,2013-09-22 20:15:00,
2013-09-22 16:20:00,93.7,66.5,29.68,SSW,202,0.0,0.0,41,0.00,,---,0.00,VWS V13.01,2013-09-22 20:20:00,
2013-09-22 16:25:00,93.9,67.4,29.68,SSW,202,0.0,0.0,42,0.00,,---,0.00,VWS V13.01,2013-09-22 20:25:00,
2013-09-22 16:30:00,94.5,66.4,29.68,SSW,202,0.0,0.0,40,0.00,,---,0.00,VWS V13.01,2013-09-22 20:30:00,
2013-09-22 16:34:00,94.6,66.6,29.68,SSW,202,0.0,0.0,40,0.00,,---,0.00,VWS V13.01,2013-09-22 20:34:00,
2013-09-22 16:39:00,95.0,65.4,29.67,SSW,202,0.0,0.0,38,0.00,,---,0.00,VWS V13.01,2013-09-22 20:39:00,
2013-09-22 16:44:00,95.0,64.7,29.68,SSW,202,0.0,0.0,37,0.00,,---,0.00,VWS V13.01,2013-09-22 20:44:00,
2013-09-22 16:49:00,94.5,62.6,29.67,SSW,202,0.0,0.0,35,0.00,,---,0.00,VWS V13.01,2013-09-22 20:49:00,
2013-09-22 16:54:00,94.5,62.6,29.67,SSW,202,0.0,0.0,35,0.00,,---,0.00,VWS V13.01,2013-09-22 20:54:00,
2013-09-22 16:59:00,94.1,63.1,29.67,SSW,202,0.0,0.0,36,0.00,,---,0.00,VWS V13.01,2013-09-22 20:59:00,
2013-09-22 17:04:00,94.1,62.3,29.67,SSW,202,0.0,0.0,35,0.00,,---,0.00,VWS V13.01,2013-09-22 21:04:00,
2013-09-22 17:09:00,93.9,63.7,29.68,SSW,202,0.0,0.0,37,0.00,,---,0.00,VWS V13.01,2013-09-22 21:09:00,
2013-09-22 17:14:00,93.7,63.6,29.68,SSW,202,0.0,0.0,37,0.00,,---,0.00,VWS V13.01,2013-09-22 21:14:00,
2013-09-22 17:19:00,93.6,63.4,29.68,SSW,202,0.0,0.0,37,0.00,,---,0.00,VWS V13.01,2013-09-22 21:19:00,
2013-09-22 17:24:00,93.6,64.2,29.68,SSW,202,0.0,0.0,38,0.00,,---,0.00,VWS V13.01,2013-09-22 21:24:00,
2013-09-22 17:29:00,93.4,64.0,29.68,SSW,202,0.0,0.0,38,0.00,,---,0.00,VWS V13.01,2013-09-22 21:29:00,
2013-09-22 17:34:00,93.4,64.0,29.68,SSW,202,0.0,0.0,38,0.00,,---,0.00,VWS V13.01,2013-09-22 21:34:00,
2013-09-22 17:39:00,93.4,64.7,29.68,SSW,202,0.0,0.0,39,0.00,,---,0.00,VWS V13.01,2013-09-22 21:39:00,
2013-09-22 17:44:00,93.0,63.7,29.69,SSW,202,0.0,0.0,38,0.00,,---,0.00,VWS V13.01,2013-09-22 21:44:00,
2013-09-22 17:49:00,92.8,64.3,29.69,South,180,0.0,0.0,39,0.00,,---,0.00,VWS V13.01,2013-09-22 21:49:00,
2013-09-22 17:54:00,93.0,64.4,29.69,SSW,202,0.0,0.0,39,0.00,,---,0.00,VWS V13.01,2013-09-22 21:54:00,
2013-09-22 18:00:00,92.7,64.1,29.69,SSW,202,0.0,0.0,39,0.00,,---,0.00,VWS V13.01,2013-09-22 22:00:00,
2013-09-22 18:05:00,92.1,63.6,29.69,SSW,202,0.0,0.0,39,0.00,,---,0.00,VWS V13.01,2013-09-22 22:05:00,
2013-09-22 18:10:00,91.9,64.2,29.69,South,180,0.0,0.0,40,0.00,,---,0.00,VWS V13.01,2013-09-22 22:10:00,
2013-09-22 18:15:00,91.8,64.7,29.69,West,270,0.0,0.0,41,0.00,,---,0.00,VWS V13.01,2013-09-22 22:15:00,
2013-09-22 18:20:00,91.2,64.2,29.69,SSW,202,0.0,0.0,41,0.00,,---,0.00,VWS V13.01,2013-09-22 22:20:00,
2013-09-22 18:25:00,91.0,64.1,29.69,SSW,202,0.0,0.0,41,0.00,,---,0.00,VWS V13.01,2013-09-22 22:25:00,
2013-09-22 18:30:00,90.9,63.9,29.69,SSW,202,0.0,0.0,41,0.00,,---,0.00,VWS V13.01,2013-09-22 22:30:00,
2013-09-22 18:35:00,90.9,63.9,29.69,NE,45,0.0,0.0,41,0.00,,---,0.00,VWS V13.01,2013-09-22 22:35:00,
2013-09-22 18:40:00,90.5,63.6,29.70,West,270,0.0,0.0,41,0.00,,---,0.00,VWS V13.01,2013-09-22 22:40:00,
2013-09-22 18:45:00,90.5,64.3,29.70,West,270,0.0,0.0,42,0.00,,---,0.00,VWS V13.01,2013-09-22 22:45:00,
2013-09-22 18:50:00,90.3,64.1,29.70,NW,315,0.0,0.0,42,0.00,,---,0.00,VWS V13.01,2013-09-22 22:50:00,
2013-09-22 18:55:00,90.0,63.8,29.70,WNW,292,0.0,0.0,42,0.00,,---,0.00,VWS V13.01,2013-09-22 22:55:00,
2013-09-22 19:00:00,89.8,64.3,29.70,West,270,0.0,0.0,43,0.00,,---,0.00,VWS V13.01,2013-09-22 23:00:00,
2013-09-22 19:05:00,89.2,63.8,29.70,SSW,202,0.0,0.0,43,0.00,,---,0.00,VWS V13.01,2013-09-22 23:05:00,
2013-09-22 19:10:00,89.4,64.0,29.71,SSW,202,0.0,0.0,43,0.00,,---,0.00,VWS V13.01,2013-09-22 23:10:00,
2013-09-22 19:15:00,89.2,64.5,29.71,SSW,202,0.0,0.0,44,0.00,,---,0.00,VWS V13.01,2013-09-22 23:15:00,
2013-09-22 19:20:00,88.9,64.2,29.71,SSW,202,0.0,0.0,44,0.00,,---,0.00,VWS V13.01,2013-09-22 23:20:00,
2013-09-22 19:25:00,88.7,64.0,29.71,SSW,202,0.0,0.0,44,0.00,,---,0.00,VWS V13.01,2013-09-22 23:25:00,
2013-09-22 19:30:00,88.7,64.7,29.71,SSW,202,0.0,0.0,45,0.00,,---,0.00,VWS V13.01,2013-09-22 23:30:00,
2013-09-22 19:35:00,88.3,64.9,29.72,SSW,202,0.0,0.0,46,0.00,,---,0.00,VWS V13.01,2013-09-22 23:35:00,
2013-09-22 19:40:00,88.2,64.8,29.72,SSW,202,0.0,0.0,46,0.00,,---,0.00,VWS V13.01,2013-09-22 23:40:00,
2013-09-22 19:45:00,88.2,65.4,29.72,SSW,202,0.0,0.0,47,0.00,,---,0.00,VWS V13.01,2013-09-22 23:45:00,
2013-09-22 19:50:00,88.0,65.2,29.72,SSW,202,0.0,0.0,47,0.00,,---,0.00,VWS V13.01,2013-09-22 23:50:00,
2013-09-22 19:55:00,87.8,65.7,29.72,SSW,202,0.0,0.0,48,0.00,,---,0.00,VWS V13.01,2013-09-22 23:55:00,
2013-09-22 20:00:00,87.6,66.1,29.72,SSW,202,0.0,0.0,49,0.00,,---,0.00,VWS V13.01,2013-09-23 00:00:00,
2013-09-22 20:05:00,87.3,66.4,29.72,SSW,202,0.0,0.0,50,0.00,,---,0.00,VWS V13.01,2013-09-23 00:05:00,
2013-09-22 20:10:00,86.9,66.6,29.72,SSW,202,0.0,0.0,51,0.00,,---,0.00,VWS V13.01,2013-09-23 00:10:00,
2013-09-22 20:15:00,86.7,67.6,29.72,SSE,158,0.0,0.0,53,0.00,,---,0.00,VWS V13.01,2013-09-23 00:15:00,
2013-09-22 20:20:00,86.7,68.6,29.73,SSE,158,0.0,0.0,55,0.00,,---,0.00,VWS V13.01,2013-09-23 00:20:00,
2013-09-22 20:25:00,86.4,68.3,29.73,SSE,158,0.0,0.0,55,0.00,,---,0.00,VWS V13.01,2013-09-23 00:25:00,
2013-09-22 20:30:00,86.4,68.8,29.73,SSE,158,0.0,0.0,56,0.00,,---,0.00,VWS V13.01,2013-09-23 00:30:00,
2013-09-22 20:35:00,86.2,69.2,29.73,SSE,158,0.0,0.0,57,0.00,,---,0.00,VWS V13.01,2013-09-23 00:35:00,
2013-09-22 20:40:00,86.2,69.2,29.73,SSE,158,0.0,0.0,57,0.00,,---,0.00,VWS V13.01,2013-09-23 00:40:00,
2013-09-22 20:45:00,86.2,69.7,29.73,SSE,158,0.0,0.0,58,0.00,,---,0.00,VWS V13.01,2013-09-23 00:45:00,
2013-09-22 20:50:00,85.8,69.8,29.73,SSE,158,0.0,0.0,59,0.00,,---,0.00,VWS V13.01,2013-09-23 00:50:00,
2013-09-22 20:56:00,85.6,70.2,29.74,SSE,158,0.0,0.0,60,0.00,,---,0.00,VWS V13.01,2013-09-23 00:56:00,
2013-09-22 21:01:00,85.6,70.2,29.74,SSE,158,0.0,0.0,60,0.00,,---,0.00,VWS V13.01,2013-09-23 01:01:00,
2013-09-22 21:06:00,85.5,70.0,29.75,SSE,158,0.0,0.0,60,0.00,,---,0.00,VWS V13.01,2013-09-23 01:06:00,
2013-09-22 21:11:00,85.6,70.7,29.75,SSE,158,0.0,0.0,61,0.00,,---,0.00,VWS V13.01,2013-09-23 01:11:00,
2013-09-22 21:16:00,85.5,70.5,29.75,SSE,158,0.0,0.0,61,0.00,,---,0.00,VWS V13.01,2013-09-23 01:16:00,
2013-09-22 21:21:00,85.1,70.6,29.75,SSE,158,0.0,0.0,62,0.00,,---,0.00,VWS V13.01,2013-09-23 01:21:00,
2013-09-22 21:26:00,85.1,70.6,29.75,SSE,158,0.0,0.0,62,0.00,,---,0.00,VWS V13.01,2013-09-23 01:26:00,
2013-09-22 21:31:00,84.9,70.5,29.76,SSE,158,0.0,0.0,62,0.00,,---,0.00,VWS V13.01,2013-09-23 01:31:00,
2013-09-22 21:36:00,84.9,70.9,29.76,SSE,158,0.0,0.0,63,0.00,,---,0.00,VWS V13.01,2013-09-23 01:36:00,
2013-09-22 21:41:00,84.9,71.4,29.76,SSE,158,0.0,0.0,64,0.00,,---,0.00,VWS V13.01,2013-09-23 01:41:00,
2013-09-22 21:46:00,84.7,71.2,29.76,SSE,158,0.0,0.0,64,0.00,,---,0.00,VWS V13.01,2013-09-23 01:46:00,
2013-09-22 21:51:00,84.6,71.1,29.76,SSE,158,0.0,0.0,64,0.00,,---,0.00,VWS V13.01,2013-09-23 01:51:00,
2013-09-22 21:56:00,84.6,71.5,29.76,SSE,158,0.0,0.0,65,0.00,,---,0.00,VWS V13.01,2013-09-23 01:56:00,
2013-09-22 22:01:00,84.6,71.5,29.77,SSE,158,0.0,0.0,65,0.00,,---,0.00,VWS V13.01,2013-09-23 02:01:00,
2013-09-22 22:06:00,84.4,71.3,29.77,SSE,158,0.0,0.0,65,0.00,,---,0.00,VWS V13.01,2013-09-23 02:06:00,
2013-09-22 22:11:00,84.2,71.2,29.77,SSE,158,0.0,0.0,65,0.00,,---,0.00,VWS V13.01,2013-09-23 02:11:00,
2013-09-22 22:16:00,84.2,71.2,29.77,SSE,158,0.0,0.0,65,0.00,,---,0.00,VWS V13.01,2013-09-23 02:16:00,
2013-09-22 22:21:00,84.2,71.6,29.77,SSE,158,0.0,0.0,66,0.00,,---,0.00,VWS V13.01,2013-09-23 02:21:00,
2013-09-22 22:26:00,84.0,71.4,29.77,SSE,158,0.0,0.0,66,0.00,,---,0.00,VWS V13.01,2013-09-23 02:26:00,
2013-09-22 22:31:00,83.8,71.3,29.77,SSE,158,0.0,0.0,66,0.00,,---,0.00,VWS V13.01,2013-09-23 02:31:00,
2013-09-22 22:36:00,83.7,71.6,29.77,SSE,158,0.0,0.0,67,0.00,,---,0.00,VWS V13.01,2013-09-23 02:36:00,
2013-09-22 22:41:00,83.8,71.7,29.77,SSE,158,0.0,0.0,67,0.00,,---,0.00,VWS V13.01,2013-09-23 02:41:00,
2013-09-22 22:46:00,83.7,71.6,29.77,SSE,158,0.0,0.0,67,0.00,,---,0.00,VWS V13.01,2013-09-23 02:46:00,
2013-09-22 22:51:00,83.5,71.4,29.78,SSE,158,0.0,0.0,67,0.00,,---,0.00,VWS V13.01,2013-09-23 02:51:00,
2013-09-22 22:56:00,83.7,71.6,29.77,SSW,202,0.0,0.0,67,0.00,,---,0.00,VWS V13.01,2013-09-23 02:56:00,
2013-09-22 23:01:00,83.7,72.0,29.78,SSW,202,0.0,0.0,68,0.00,,---,0.00,VWS V13.01,2013-09-23 03:01:00,
2013-09-22 23:06:00,83.7,72.0,29.78,SSW,202,0.0,0.0,68,0.00,,---,0.00,VWS V13.01,2013-09-23 03:06:00,
2013-09-22 23:11:00,83.7,72.0,29.78,SSW,202,0.0,0.0,68,0.00,,---,0.00,VWS V13.01,2013-09-23 03:11:00,
2013-09-22 23:16:00,83.8,72.2,29.78,SSW,202,0.0,0.0,68,0.00,,---,0.00,VWS V13.01,2013-09-23 03:16:00,
2013-09-22 23:21:00,83.8,72.2,29.78,SSW,202,0.0,0.0,68,0.00,,---,0.00,VWS V13.01,2013-09-23 03:21:00,
2013-09-22 23:26:00,83.8,72.2,29.77,SSW,202,0.0,0.0,68,0.00,,---,0.00,VWS V13.01,2013-09-23 03:26:00,
2013-09-22 23:31:00,83.8,72.2,29.78,SSW,202,0.0,0.0,68,0.00,,---,0.00,VWS V13.01,2013-09-23 03:31:00,
2013-09-22 23:36:00,83.8,72.2,29.78,SSW,202,0.0,0.0,68,0.00,,---,0.00,VWS V13.01,2013-09-23 03:36:00,
2013-09-22 23:41:00,83.8,72.2,29.78,SSW,202,0.0,0.0,68,0.00,,---,0.00,VWS V13.01,2013-09-23 03:41:00,
2013-09-22 23:46:00,83.8,72.2,29.78,SSW,202,0.0,0.0,68,0.00,,---,0.00,VWS V13.01,2013-09-23 03:46:00,
2013-09-22 23:51:00,83.8,72.2,29.78,SSW,202,0.0,0.0,68,0.00,,---,0.00,VWS V13.01,2013-09-23 03:51:00,
2013-09-22 23:56:00,83.7,72.0,29.78,SSW,202,0.0,0.0,68,0.00,,---,0.00,VWS V13.01,2013-09-23 03:56:00,